Weather reports worldwide

Advertisment
Meierwik, Germany (10033): temperature & dewpoint: 16.01.2019 04:00:00 - 22.01.2019 04:00:00 (CET)Meierwik, Germany (10033): wind speed & gusts: 16.01.2019 04:00:00 - 22.01.2019 04:00:00 (CET)Meierwik, Germany (10033): wind direction: 16.01.2019 04:00:00 - 22.01.2019 04:00:00 (CET)Meierwik, Germany (10033): reduced air pressure: 16.01.2019 04:00:00 - 22.01.2019 04:00:00 (CET)Meierwik, Germany (10033): visibility: 16.01.2019 04:00:00 - 22.01.2019 04:00:00 (CET)
Date & Time tt [°C] td [°C] ff [km/h] ff [kn] fx [km/h] fx [kn] dd ppp [hPa] vv [km]
22.01.2019 04:00:00 - - - - - - - - -
22.01.2019 03:00:00 0,3 -0,1 11 6 - - SSW 1013,0 0,4
22.01.2019 02:00:00 -0,2 -0,6 7 4 - - SW 1013,7 0,3
22.01.2019 01:00:00 -1,8 -2,5 11 6 - - SSW 1014,1 0,4
22.01.2019 00:00:00 -0,1 -0,7 11 6 - - SW 1014,5 20
21.01.2019 23:00:00 0,0 -0,5 18 10 - - WSW 1015,0 20
21.01.2019 22:00:00 -2,3 -2,8 18 10 - - W 1015,3 20
21.01.2019 21:00:00 -1,5 -2,2 18 10 - - W 1015,4 20
21.01.2019 20:00:00 -0,4 -1,6 14 8 - - W 1015,6 25
21.01.2019 19:00:00 2,4 0,5 18 10 - - W 1015,9 25
21.01.2019 18:00:00 2,8 0,4 22 12 - - W 1016,0 25
21.01.2019 17:00:00 3,3 0,7 25 14 - - W 1016,0 20
21.01.2019 16:00:00 4,1 1,1 25 14 - - W 1016,1 25
21.01.2019 15:00:00 4,6 0,9 25 14 - - W 1016,3 25
21.01.2019 14:00:00 4,9 1,5 25 14 - - W 1016,6 20
21.01.2019 13:00:00 4,3 1,7 25 14 - - W 1017,0 15
21.01.2019 12:00:00 2,4 0,8 25 14 47 25 WSW 1017,5 3,5
21.01.2019 11:00:00 1,3 0,5 29 16 - - SW 1018,0 2,8
21.01.2019 10:00:00 0,9 0,2 22 12 - - WSW 1018,2 2,5
21.01.2019 09:00:00 0,3 -0,4 26 14 - - SW 1018,2 3,0
21.01.2019 08:00:00 -0,9 -1,8 22 12 - - SW 1018,5 1,8
21.01.2019 07:00:00 -1,6 -3,0 22 12 - - SW 1018,6 7
21.01.2019 06:00:00 -1,7 -3,1 25 14 - - SW 1019,0 9
21.01.2019 05:00:00 -1,9 -3,5 25 14 - - SW 1019,6 9
21.01.2019 04:00:00 -1,9 -3,6 22 12 - - SW 1020,1 9
21.01.2019 03:00:00 -1,7 -3,7 22 12 - - SW 1020,8 9
21.01.2019 02:00:00 -1,2 -3,4 22 12 - - SW 1021,1 15
21.01.2019 01:00:00 -0,8 -3,2 22 12 - - SW 1021,8 15
21.01.2019 00:00:00 -0,5 -3,2 22 12 - - SW 1021,8 15
20.01.2019 23:00:00 -0,3 -3,1 14 8 - - SW 1021,8 13
20.01.2019 22:00:00 0,0 -3,6 14 8 - - SW 1021,6 13
20.01.2019 21:00:00 0,0 -3,6 14 8 - - WSW 1021,4 13
20.01.2019 20:00:00 0,0 -3,0 11 6 - - WSW 1021,2 9
20.01.2019 19:00:00 -0,4 -2,9 11 6 - - WSW 1021,0 9
20.01.2019 18:00:00 -0,6 -2,3 14 8 - - SW 1020,7 10
20.01.2019 17:00:00 -0,3 -2,9 11 6 - - WSW 1020,4 10
20.01.2019 16:00:00 0,6 -2,8 11 6 - - W 1020,1 10
20.01.2019 15:00:00 2,3 -2,5 7 4 - - W 1020,0 12
20.01.2019 14:00:00 2,4 -2,3 11 6 - - W 1020,0 12
20.01.2019 13:00:00 1,9 -2,5 7 4 - - W 1019,9 12
20.01.2019 12:00:00 1,1 -2,6 7 4 - - WSW 1019,9 12
20.01.2019 11:00:00 -0,1 -2,3 4 2 - - SW 1019,8 10
20.01.2019 10:00:00 -1,7 -2,7 4 2 - - N 1019,5 10
20.01.2019 09:00:00 -1,9 -2,6 11 6 - - SW 1018,7 7
20.01.2019 08:00:00 -2,5 -3,3 4 2 - - SW 1018,3 9
20.01.2019 07:00:00 -2,2 -3,3 7 4 - - WSW 1018,0 10
20.01.2019 06:00:00 -2,3 -3,3 11 6 - - SSW 1017,9 12
20.01.2019 05:00:00 -2,2 -3,6 7 4 - - SSW 1018,0 12
20.01.2019 04:00:00 -1,2 -3,4 7 4 - - SSW 1018,0 13
20.01.2019 03:00:00 -2,2 -3,2 7 4 - - SSW 1018,1 15
20.01.2019 02:00:00 -2,5 -3,6 7 4 - - SSW 1018,2 20
20.01.2019 01:00:00 -1,8 -3,6 11 6 - - SSW 1018,1 20
20.01.2019 00:00:00 -2,5 -4,3 11 6 - - S 1018,2 20
19.01.2019 23:00:00 -2,9 -5,0 14 8 - - S 1018,1 20
19.01.2019 22:00:00 -0,9 -3,8 14 8 - - S 1017,9 20
19.01.2019 21:00:00 -1,3 -3,5 11 6 - - S 1018,0 15
19.01.2019 20:00:00 -1,0 -3,5 14 8 - - S 1018,0 13
19.01.2019 19:00:00 -1,2 -2,8 11 6 - - S 1018,0 13
19.01.2019 18:00:00 -0,9 -2,5 7 4 - - S 1018,0 9
19.01.2019 17:00:00 -0,2 -2,9 7 4 - - S 1018,0 9
19.01.2019 16:00:00 1,3 -3,1 7 4 - - SSW 1018,0 14
19.01.2019 15:00:00 2,0 -3,4 11 6 - - SW 1018,4 15
19.01.2019 14:00:00 2,4 -3,2 11 6 - - SW 1018,6 10
19.01.2019 13:00:00 1,8 -0,2 7 4 - - N 1019,0 4,5
19.01.2019 12:00:00 0,9 0,4 4 2 - - N 1019,3 1,5
19.01.2019 11:00:00 0,7 0,3 11 6 - - SSW 1019,2 1,5
19.01.2019 10:00:00 1,1 0,7 11 6 - - SW 1019,1 2,0
19.01.2019 09:00:00 1,1 0,7 14 8 - - WSW 1018,6 2,2
19.01.2019 08:00:00 0,5 0,1 11 6 - - SW 1018,3 0,4
19.01.2019 07:00:00 -0,6 -1,0 18 10 - - SW 1018,1 1,4
19.01.2019 06:00:00 -1,0 -1,5 14 8 - - SW 1018,2 25
19.01.2019 05:00:00 -1,1 -1,5 11 6 - - SW 1018,2 20
19.01.2019 04:00:00 -2,6 -3,2 11 6 - - WSW 1018,5 18
19.01.2019 03:00:00 -2,0 -3,0 11 6 - - W 1018,6 25
19.01.2019 02:00:00 -1,8 -2,8 14 8 - - WSW 1018,6 25
19.01.2019 01:00:00 -0,6 -1,2 14 8 - - WSW 1018,5 25
19.01.2019 00:00:00 -1,4 -2,2 11 6 - - W 1018,4 30
18.01.2019 23:00:00 -0,7 -1,9 14 8 - - W 1018,1 30
18.01.2019 22:00:00 0,6 -1,1 18 10 - - WSW 1017,9 30
18.01.2019 21:00:00 0,6 -0,4 14 8 - - W 1017,6 30
18.01.2019 20:00:00 -0,3 -1,4 11 6 - - W 1017,2 30
18.01.2019 19:00:00 0,1 -1,0 14 8 - - W 1017,0 30
18.01.2019 18:00:00 -0,3 -1,7 18 10 - - W 1017,0 30
18.01.2019 17:00:00 2,2 0,0 18 10 - - W 1016,8 30
18.01.2019 16:00:00 3,0 -0,2 18 10 - - W 1016,5 30
18.01.2019 15:00:00 3,7 -0,2 25 14 - - WNW 1016,2 30
18.01.2019 14:00:00 3,6 -0,5 22 12 - - WNW 1015,9 30
18.01.2019 13:00:00 3,3 -1,1 22 12 - - WNW 1015,6 30
18.01.2019 12:00:00 2,2 -1,4 22 12 - - WNW 1015,3 30
18.01.2019 11:00:00 1,3 -2,1 25 14 - - W 1015,0 30
18.01.2019 10:00:00 -1,6 -3,9 18 10 - - W 1014,4 30
18.01.2019 09:00:00 -0,9 -4,3 18 10 - - W 1013,6 30
18.01.2019 08:00:00 -1,1 -6,0 22 12 - - WSW 1013,0 30
18.01.2019 07:00:00 -2,1 -6,3 11 6 - - SW 1012,5 30
18.01.2019 06:00:00 -2,7 -5,9 14 8 - - WSW 1012,2 25
18.01.2019 05:00:00 -3,6 -5,0 11 6 - - W 1012,1 25
18.01.2019 04:00:00 -3,3 -5,3 11 6 - - WNW 1011,5 25
18.01.2019 03:00:00 -2,6 -4,9 7 4 - - NW 1011,0 25
18.01.2019 02:00:00 -1,9 -4,1 18 10 - - NNW 1009,9 20
18.01.2019 01:00:00 -1,4 -3,4 18 10 - - NNW 1008,7 20
18.01.2019 00:00:00 -1,0 -3,8 22 12 - - NNW 1007,6 18
17.01.2019 23:00:00 -0,6 -4,0 29 16 - - N 1006,4 9
17.01.2019 22:00:00 0,0 -3,6 29 16 - - N 1005,1 18
17.01.2019 21:00:00 -0,2 -2,1 22 12 - - NNW 1003,4 18
17.01.2019 20:00:00 0,6 -2,7 35 19 47 25 NNE 1001,5 4,0
17.01.2019 19:00:00 -0,2 -1,6 25 14 - - NE 999,9 2,0
17.01.2019 18:00:00 0,3 -0,8 21 11 - - NE 997,9 4,5
17.01.2019 17:00:00 1,4 0,0 18 10 - - ENE 996,2 8
17.01.2019 16:00:00 2,2 1,2 18 10 - - W 994,7 25
17.01.2019 15:00:00 4,4 2,2 25 14 - - WNW 993,7 12
17.01.2019 14:00:00 4,6 2,2 29 16 - - NW 993,3 25
17.01.2019 13:00:00 4,4 3,1 36 19 - - WNW 992,4 15
17.01.2019 12:00:00 3,9 2,2 36 19 61 33 W 991,8 25
17.01.2019 11:00:00 5,4 2,9 36 19 58 31 WSW 991,5 18
17.01.2019 10:00:00 4,9 2,9 32 18 - - WSW 991,5 20
17.01.2019 09:00:00 4,7 2,3 29 16 50 27 WSW 991,6 20
17.01.2019 08:00:00 3,9 2,0 32 18 61 33 WSW 991,8 20
17.01.2019 07:00:00 4,7 2,7 40 21 - - W 991,8 20
17.01.2019 06:00:00 4,6 2,7 29 16 50 27 WNW 991,9 -
17.01.2019 05:00:00 4,6 2,9 36 19 50 27 W 992,0 -
17.01.2019 04:00:00 4,2 2,5 32 18 - - W 992,2 -
17.01.2019 03:00:00 4,5 3,1 43 23 54 29 W 992,2 -
17.01.2019 02:00:00 4,8 3,4 25 14 54 29 WSW 992,3 -
17.01.2019 01:00:00 4,7 3,5 29 16 - - W 992,5 -
17.01.2019 00:00:00 4,8 3,8 32 18 58 31 W 992,8 -
16.01.2019 23:00:00 5,5 4,3 36 19 76 41 WSW 993,0 -
16.01.2019 22:00:00 5,6 4,4 36 19 - - WSW 993,6 -
16.01.2019 21:00:00 5,8 4,8 43 23 83 45 WSW 994,3 -
16.01.2019 20:00:00 6,1 4,9 36 19 72 39 WSW 994,9 -
16.01.2019 19:00:00 6,1 5,1 40 21 - - WSW 995,5 -
16.01.2019 18:00:00 6,3 5,3 43 23 76 41 WSW 996,3 3,0
16.01.2019 17:00:00 6,4 5,4 47 25 76 41 WSW 997,0 1,2
16.01.2019 16:00:00 6,8 5,8 43 23 - - WSW 997,6 1,2
16.01.2019 15:00:00 6,8 5,9 39 21 72 39 WSW 998,0 1,2
16.01.2019 14:00:00 6,9 6,0 40 21 65 35 WSW 998,6 2,5
16.01.2019 13:00:00 6,9 5,8 40 21 - - WSW 999,3 4,5
16.01.2019 12:00:00 7,3 5,6 36 19 65 35 WSW 1000,3 4,5
16.01.2019 11:00:00 7,4 5,6 36 19 65 35 W 1001,1 9
16.01.2019 10:00:00 7,2 5,5 43 23 - - W 1001,4 9
16.01.2019 09:00:00 7,2 5,5 43 23 58 31 W 1001,8 10
16.01.2019 08:00:00 7,0 5,5 43 23 61 33 W 1002,1 18
16.01.2019 07:00:00 6,7 5,1 47 25 - - W 1002,6 15
16.01.2019 06:00:00 6,7 5,4 43 23 61 33 W 1002,9 15
16.01.2019 05:00:00 6,7 5,1 40 21 61 33 W 1003,6 15
16.01.2019 04:00:00 6,8 5,2 40 21 - - W 1003,9 15

tt = temperature
td = dewpoint
ff = wind speed
fx = gusts
dd = wind direction
ppp = reduced air pressure
vv = visibility

Next stations